Regional Weather Roundup
Issued by NWS

Home | Current Version | Previous Version | Graphics & Text | Print | Product List | Glossary On
Versions: 1 2 3 4 5 6 7 8 9 10 11 12 13 14 15 16 17 18 19 20 21 22 23 24 25 26 27 28 29 30 31 32 33 34 35 36 37 38 39 40 41 42 43 44 45 46 47 48 49 50
896
ASUS43 KOAX 251502
RWRNE

WEATHER ROUNDUP FOR NEBRASKA
NATIONAL WEATHER SERVICE OMAHA NE
1000 AM CDT WED APR 25 2018

NOTES: SATELLITE DATA IS BEING USED TO AUGMENT CLOUD COVER ABOVE
       12000 FEET.
       "FAIR" INDICATES FEW OR NO CLOUDS BELOW 12,000 FEET WITH NO
       SIGNIFICANT WEATHER AND/OR OBSTRUCTIONS TO VISIBILITY.


NEZ001>004-019>022-054>056-251600-
NEBRASKA PANHANDLE

CITY           SKY/WX    TMP DP  RH WIND       PRES   REMARKS
SCOTTSBLUFF    SUNNY     39  33  79 CALM      30.32F
ALLIANCE       SUNNY     43  29  57 W8        30.30F
CHADRON        SUNNY     46  33  60 SW12      30.28F
GORDON         FAIR      45  30  55 SW14      30.28F
KIMBALL        SUNNY     41  29  60 SW6       30.32F
SIDNEY         SUNNY     41  28  60 W7        30.33F
$$

NEZ057>060-069>072-079>082-251600-
SOUTHWEST NEBRASKA

CITY           SKY/WX    TMP DP  RH WIND       PRES   REMARKS
NORTH PLATTE   SUNNY     48  32  53 N7        30.31F
IMPERIAL       SUNNY     46  31  55 NW12      30.33F
LEXINGTON      CLOUDY    44  37  74 N9        30.31F
MCCOOK         SUNNY     46  34  62 NW14      30.32F
OGALLALA       SUNNY     47  31  54 NW12      30.33S
$$

NEZ005>010-023>029-035>040-094-251600-
NORTH CENTRAL NEBRASKA

CITY           SKY/WX    TMP DP  RH WIND       PRES   REMARKS
VALENTINE      SUNNY     47  32  56 W12       30.29F
AINSWORTH      SUNNY     45  36  71 NW7       30.30S
BROKEN BOW     SUNNY     46  36  68 N6        30.29F
O`NEILL        SUNNY     47  34  60 NW6       30.30F
ORD            MOSUNNY   46  39  76 NW6       30.28F
THEDFORD       SUNNY     47  32  55 N8        30.31F
$$

NEZ041-046>049-061>064-073>077-083>087-251600-
SOUTH CENTRAL NEBRASKA

CITY           SKY/WX    TMP DP  RH WIND       PRES   REMARKS
GRAND ISLAND   CLOUDY    44  32  62 N17       30.28F
AURORA         CLOUDY    43  36  75 N12       30.28S
HASTINGS       PTSUNNY   42  36  79 N15       30.28F
HEBRON         CLOUDY    43  40  87 N10       30.26F
HOLDREGE       CLOUDY    44  36  75 N13       30.30S
KEARNEY        CLOUDY    43  36  76 N15       30.30F
YORK             N/A     45  43  93 N14G20    30.27S
$$

NEZ011>018-030>034-042>045-251600-
NORTHEAST NEBRASKA

CITY           SKY/WX    TMP DP  RH WIND       PRES   REMARKS
NORFOLK        CLOUDY    44  36  73 N15       30.25F
ALBION         CLOUDY    44  37  76 N9        30.28F
BLAIR          LGT RAIN  43  39  85 NW10      30.25S
COLUMBUS       CLOUDY    42  36  79 N10       30.28F
FREMONT        LGT RAIN  44  39  82 NW6       30.28S
TEKAMAH        CLOUDY    43  36  76 N13       30.26S
WAYNE          MOSUNNY   46  39  77 N8        30.27F
$$

NEZ050>053-065>068-078-088>093-251600-
SOUTHEAST NEBRASKA

CITY           SKY/WX    TMP DP  RH WIND       PRES   REMARKS
LINCOLN        CLOUDY    46  41  82 N13       30.27S
OMAHA EPPLEY   LGT RAIN  44  40  85 NW12      30.25S
BEATRICE       LGT RAIN  44  42  93 N13       30.24F
FALLS CITY     LGT RAIN  46  46 100 N14       30.21R FOG
NEBRASKA CITY  LGT RAIN  44  44 100 N14       30.24S
PLATTSMOUTH    DRIZZLE   44  40  86 N6        30.25R
$$

NEZ044-045-051>053-067-251600-
OMAHA AREA

CITY           SKY/WX    TMP DP  RH WIND       PRES   REMARKS
OMAHA EPPLEY   LGT RAIN  44  40  85 NW12      30.25S
BLAIR          LGT RAIN  43  39  85 NW10      30.25S
FREMONT        LGT RAIN  44  39  82 NW6       30.28S
MILLARD        DRIZZLE   45  40  83 NW7       30.26S
OFFUTT AFB     CLOUDY    44  40  85 NW7       30.24S
PLATTSMOUTH    DRIZZLE   44  40  86 N6        30.25R
WAHOO          CLOUDY    45  39  79 NW13      30.27S
$$




USA.gov is the U.S. government's official web portal to all federal, state and local government web resources and services.